Overview Statistics Trail Chart Weather Telemetry Raw packets
 

This is the latest recevied weather packets stored in our database for station/object W5ITZ. If no packets are shown the sender has not sent any weather packets the latest 10 day(s).

<< 93 94 95 96 97 98 99 >>
Time Temp. Humidity Pressure Rain* Wind** Luminosity Snow
1787529905 32.78° C 50% 1014.4 hPa 0 mm - 65 W/m² -
1787529600 33.33° C 48% 1014.4 hPa 0 mm - 74 W/m² -
1787529295 33.33° C 46% 1014.3 hPa 0 mm - 86 W/m² -
1787528989 33.89° C 45% 1014.5 hPa 0 mm - 95 W/m² -
1787528687 33.89° C 46% 1014.4 hPa 0 mm - 109 W/m² -
1787528386 33.89° C 46% 1014.4 hPa 0 mm - 122 W/m² -
1787528083 33.89° C 45% 1014.5 hPa 0 mm - 135 W/m² -
1787527778 34.44° C 45% 1014.3 hPa 0 mm - 149 W/m² -
1787527473 34.44° C 45% 1014.3 hPa 0 mm - 164 W/m² -
1787527219 34.44° C 45% 1014.3 hPa 0 mm - 178 W/m² -
1787526865 34.44° C 46% 1014.4 hPa 0 mm - 195 W/m² -
1787526561 34.44° C 47% 1014.5 hPa 0 mm - 211 W/m² -
1787526257 35° C 46% 1014.3 hPa 0 mm - 232 W/m² -
1787525953 35° C 45% 1014.3 hPa 0 mm - 247 W/m² -
1787525649 35° C 45% 1014.2 hPa 0 mm - 267 W/m² -
1787525348 35° C 45% 1014.4 hPa 0 mm - 283 W/m² -
1787525045 35.56° C 45% 1014.3 hPa 0 mm - 307 W/m² -
1787524745 35.56° C 45% 1014.4 hPa 0 mm - 325 W/m² -
1787524441 35.56° C 44% 1014.1 hPa 0 mm - 347 W/m² -
1787524136 35.56° C 45% 1014.3 hPa 0 mm - 363 W/m² -
1787523832 35° C 45% 1014.3 hPa 0 mm - 384 W/m² -
1787523531 35.56° C 44% 1014.5 hPa 0 mm - 403 W/m² -
1787523227 35.56° C 44% 1014.4 hPa 0 mm - 422 W/m² -
1787522923 35.56° C 45% 1014.3 hPa 0 mm - 446 W/m² -
1787522618 35.56° C 43% 1014.3 hPa 0 mm - 462 W/m² -

* Rain latest hour (hover to see other rain measurements)
** Current wind speed in m/s (hover to see current wind gust speed)